Location: ??????
(31.2056°N, 45.3906°E)
Time: 20:40:42
(UTC+00:00)

GPS 2-04 Rocket1 - Pass Details

Date: 09 April 2020
Orbit: 419 x 548 km, 35.6° (Epoch: 02 June)

Event Time Altitude Azimuth Distance (km) Brightness Sun altitude
Rises 16:44:50 0° 246° (WSW) 2,594 7.0 -17.6°
Reaches altitude 10° 16:47:01 10° 245° (WSW) 1,731 5.9 -18.1°
Maximum altitude 16:51:01 79° 159° (SSE) 540 2.6 -18.9°
Enters shadow 16:52:06 47° 81° (E) 706 2.9 -19.1°
